Location: Nitra
(0.0000°N, 18.0833°E)
Time: 19:07:43
(UTC+01:00)

Intercosmos 25 Rocket - Pass Details

Date: 24 January 2021
Orbit: 436 x 2983 km, 82.6° (Epoch: 01 March)

Event Time Altitude Azimuth Distance (km) Brightness Sun altitude
Rises 19:36:17 0° 188° (S) 4,088 8.1 -22.7°
Reaches altitude 10° 19:39:33 10° 190° (S) 2,745 7.2 -23.5°
Maximum altitude 19:45:19 65° 272° (W) 749 4.1 -24.8°
Enters shadow 19:46:31 43° 334° (NNW) 878 4.3 -25.1°
